This is the latest recevied weather packets stored in our database for station/object SR3WXA. If no packets are shown the sender has not sent any weather packets the latest 10 day(s).
| Time | Temp. | Humidity | Pressure | Rain* | Wind** | Luminosity | Snow |
|---|---|---|---|---|---|---|---|
| 1788607681 | 14.44° C | 89% | 1014.5 hPa | 0 mm | - | 111 W/m² | - |
| 1788607612 | 14.44° C | 89% | 1014.5 hPa | 0 mm | - | 111 W/m² | - |
| 1788607400 | 14.44° C | 87% | 1014.5 hPa | 0 mm | - | 60 W/m² | - |
| 1788607312 | 14.44° C | 87% | 1014.5 hPa | 0 mm | - | 60 W/m² | - |
| 1788607092 | 14.44° C | 84% | 1014.8 hPa | 0 mm | - | 46 W/m² | - |
| 1788607011 | 14.44° C | 84% | 1014.8 hPa | 0 mm | - | 46 W/m² | - |
| 1788606711 | 16.11° C | 78% | 1014.8 hPa | 0 mm | - | 58 W/m² | - |
| 1788606483 | 18.33° C | 70% | 1014.6 hPa | 0 mm | - | 65 W/m² | - |
| 1788606387 | 18.33° C | 70% | 1014.6 hPa | 0 mm | - | 65 W/m² | - |
| 1788606184 | 18.33° C | 69% | 1014.1 hPa | 0 mm | - | 199 W/m² | - |
| 1788606087 | 18.33° C | 69% | 1014.1 hPa | 0 mm | - | 199 W/m² | - |
| 1788605787 | 18.33° C | 69% | 1014.1 hPa | 0 mm | - | 190 W/m² | - |
| 1788605547 | 18.33° C | 68% | 1014 hPa | 0 mm | - | 118 W/m² | - |
| 1788605487 | 18.33° C | 68% | 1014 hPa | 0 mm | - | 118 W/m² | - |
| 1788605187 | 18.33° C | 68% | 1013.9 hPa | 0 mm | - | 204 W/m² | - |
| 1788604957 | 18.33° C | 68% | 1014.1 hPa | 0 mm | - | 450 W/m² | - |
| 1788604887 | 18.33° C | 68% | 1014.1 hPa | 0 mm | - | 450 W/m² | - |
| 1788604753 | 18.33° C | 68% | 1014.1 hPa | 0 mm | - | 239 W/m² | - |
| 1788604587 | 18.33° C | 68% | 1014.1 hPa | 0 mm | - | 239 W/m² | - |
| 1788604383 | 18.33° C | 68% | 1014.1 hPa | 0 mm | - | 167 W/m² | - |
| 1788604287 | 18.33° C | 68% | 1014.1 hPa | 0 mm | - | 167 W/m² | - |
| 1788604068 | 18.33° C | 68% | 1014 hPa | 0 mm | - | 153 W/m² | - |
| 1788603987 | 18.33° C | 68% | 1014 hPa | 0 mm | - | 153 W/m² | - |
| 1788603778 | 18.33° C | 69% | 1013.9 hPa | 0 mm | - | 135 W/m² | - |
| 1788603687 | 18.33° C | 69% | 1013.9 hPa | 0 mm | - | 135 W/m² | - |
* Rain latest hour (hover to see other rain measurements)
** Current wind speed in m/s (hover to see current wind gust speed)